Regional Weather Roundup
Issued by NWS

Home | Current Version | Previous Version | Graphics & Text | Print | Product List | Glossary On
Versions: 1 2 3 4 5 6 7 8 9 10 11 12 13 14 15 16 17 18 19 20 21 22 23 24 25 26 27 28 29 30 31 32 33 34 35 36 37 38 39 40 41 42 43 44 45 46 47 48 49 50
000
ASUS43 KBIS 300802
RWRND

NORTH DAKOTA REGIONAL WEATHER ROUNDUP
NATIONAL WEATHER SERVICE BISMARCK ND
300 AM CDT MON MAY 30 2016

NOTE: "FAIR" INDICATES FEW OR NO CLOUDS BELOW 12,000 FEET WITH NO
SIGNIFICANT WEATHER AND/OR OBSTRUCTIONS TO VISIBILITY.


NDZ001>003-009>011-017-300900-
NORTHWEST NORTH DAKOTA

CITY           SKY/WX    TMP DP  RH WIND       PRES   REMARKS
WILLISTON      CLEAR     44  40  85 CALM      29.91F
MINOT          CLEAR     56  46  69 S3        29.91S
MINOT AFB      CLEAR     51  45  80 SW2       29.90S
$$

NDZ018>021-031>035-040>046-300900-
SOUTHWEST NORTH DAKOTA

CITY           SKY/WX    TMP DP  RH WIND       PRES   REMARKS
BISMARCK       CLEAR     55  51  86 E3        29.93F
DICKINSON      CLEAR     50  46  86 S8        29.91F
GARRISON         N/A     51  46  83 E3        29.92S
HETTINGER ARPT CLEAR     53  47  79 CALM      29.95F
$$

NDZ004>008-012>016-024-026-027-054-300900-
NORTHEAST NORTH DAKOTA

CITY           SKY/WX    TMP DP  RH WIND       PRES   REMARKS
GRAND FORKS    CLEAR     50  45  83 CALM      29.91F
GRND FRKS AFB  CLEAR     53  47  82 SW3       29.91F
DEVILS LAKE    MOCLDY    53  46  77 S3        29.93F
$$

NDZ022-023-025-028>030-036>039-047>053-300900-
SOUTHEAST NORTH DAKOTA

CITY           SKY/WX    TMP DP  RH WIND       PRES   REMARKS
FARGO          CLOUDY    62  48  60 SE6       29.93F
JAMESTOWN      CLEAR     52  48  86 CALM      29.93F
$$





USA.gov is the U.S. government's official web portal to all federal, state and local government web resources and services.